Probability
0 0 0 0 0 0 0 0 0 0 0 0 0 0 0 0 0 0 0 0 0 0 0 0 0 0 0 0 0 0 0 0 0 0 0 0 0 0 0 0 0 0 0 0 0 1 2 2 1
0 0 0 0 0 0 0 0 0 0 0 0 0 0 0 0 0 0 0 0 0 0 0 0 0 0 0 0 0 0 0 0 0 0 0 0 0 0 0 0 0 0 0 0 0 0 1 1 0
0 0 0 0 0 0 0 0 0 0 0 0 0 0 0 0 0 0 0 0 0 0 0 0 0 0 0 0 0 0 0 0 0 0 0 0 0 0 0 0 0 0 0 0 0 0 0 0 0
0 0 0 0 0 0 0 0 0 0 0 0 0 0 0 0 0 0 0 0 0 0 0 0 0 0 0 0 0 0 0 0 0 0 0 0 0 0 0 0 0 0 0 0 0 0 0 0 0
0 0 0 0 0 0 0 0 0 0 0 0 0 0 0 0 0 0 0 0 0 0 0 0 0 0 0 0 0 0 0 0 0 0 0 0 0 0 0 0 0 0 0 0 0 0 0 0 0
0 0 0 0 0 0 0 0 0 0 0 0 0 0 0 0 0 0 0 0 0 0 0 0 0 0 0 0 0 0 0 0 0 0 0 0 0 0 0 0 0 0 0 0 0 0 0 0 0
0 0 0 0 0 0 0 0 0 0 0 0 0 0 0 0 0 0 0 0 0 0 0 0 0 0 0 0 0 0 0 0 0 0 0 0 0 0 0 0 0 0 0 0 0 0 0 0 0
0 0 0 0 0 0 0 0 0 0 0 0 0 0 0 0 0 0 0 0 0 0 0 0 0 0 0 0 0 0 0 0 0 0 0 0 0 0 0 0 0 0 0 0 0 0 0 0 0
0 0 0 0 0 0 0 0 0 0 0 0 0 0 0 0 0 0 0 0 0 0 0 0 0 0 0 0 0 0 0 0 0 0 0 0 0 0 0 0 0 0 0 0 0 0 0 0 0
0 0 0 0 0 0 0 0 0 0 0 0 0 0 0 0 0 0 0 0 0 0 0 0 0 0 0 0 0 0 0 0 0 0 0 0 0 0 0 0 0 0 0 0 0 0 0 0 0
0 0 0 0 0 0 0 0 0 0 0 0 0 0 0 0 0 0 0 0 0 0 0 0 0 0 0 0 0 0 0 0 0 0 0 0 0 0 0 0 0 0 0 0 0 0 0 0 0
0 0 0 0 0 0 0 0 0 0 0 0 0 0 0 0 0 0 0 0 0 0 0 0 0 0 0 0 0 0 0 0 0 0 0 0 0 0 0 0 0 0 0 0 0 0 0 0 0
0 0 0 0 0 0 0 0 0 0 0 0 0 0 0 0 0 0 0 0 0 0 1 1 1 0 0 0 0 0 0 0 0 0 0 0 0 0 0 0 0 0 0 0 0 0 0 0 0
0 0 0 0 0 0 0 0 0 0 0 0 0 0 0 0 0 0 0 0 0 0 1 1 1 0 0 0 0 0 0 0 0 0 0 0 0 0 0 0 0 0 0 0 0 0 0 0 0
0 0 0 0 0 0 0 0 0 0 0 0 0 0 0 0 0 0 0 0 0 0 1 1 1 1 0 0 0 0 0 0 0 0 0 0 0 0 0 0 0 0 0 0 0 0 0 0 0
0 0 0 0 0 0 0 0 0 0 0 0 0 0 0 0 0 0 1 1 1 0 1 2 2 1 0 0 0 0 0 0 0 0 0 0 0 0 0 0 0 0 0 0 0 0 0 0 0
0 0 0 0 0 0 0 0 0 0 0 0 0 0 0 0 0 0 2 4 4 2 1 2 1 0 1 1 1 0 0 0 0 0 0 0 0 0 0 0 0 0 0 0 0 0 0 0 0
0 0 0 0 0 0 0 0 0 0 0 0 0 0 0 0 0 1 5 9 8 4 2 3 2 2 5 7 5 3 1 0 0 0 0 0 0 0 0 0 0 0 0 0 0 0 0 0 0
0 0 0 0 0 0 0 0 0 0 0 0 0 0 0 0 0 1 6 12 14 12 13 16 16 18 23 23 16 8 4 1 0 0 0 0 0 0 0 0 0 0 0 0 0 0 0 0 0
0 0 0 0 0 0 0 0 0 0 0 0 0 0 0 0 1 3 8 17 26 33 40 46 50 54 58 53 36 18 7 1 0 0 0 0 0 0 0 0 0 0 0 0 0 0 0 0 0
0 0 0 0 0 0 0 0 0 0 0 0 0 0 0 1 6 14 24 37 50 61 71 78 82 85 85 78 59 31 11 2 0 0 0 0 0 0 0 0 0 0 0 0 0 0 0 0 0
0 0 0 0 0 0 0 0 0 0 0 0 0 0 1 5 18 34 51 66 76 83 88 92 93 90 85 76 60 35 12 2 0 0 0 0 0 0 0 0 0 0 0 0 0 1 0 0 0
0 0 0 0 0 0 0 0 0 0 0 0 0 0 2 11 32 55 72 84 90 91 91 89 83 72 58 46 35 21 8 1 0 0 0 0 0 0 0 0 0 0 0 0 0 1 1 0 0
0 0 0 0 0 0 0 0 0 0 0 0 0 0 3 14 37 61 77 86 89 87 84 76 60 40 25 15 10 6 2 0 0 0 0 0 0 0 0 0 0 0 0 0 0 1 2 1 0
0 0 0 0 0 0 0 0 0 0 0 0 0 0 3 14 31 52 70 79 79 75 67 53 32 15 6 2 1 0 0 0 0 0 0 0 0 0 0 0 0 0 0 0 0 1 2 1 0
0 0 0 0 0 0 0 0 0 0 0 0 0 0 2 9 20 35 52 61 60 53 42 27 12 4 1 0 0 0 0 0 0 0 0 0 0 0 0 0 0 0 0 0 0 1 1 0 0
0 0 0 0 0 0 0 0 0 0 0 0 0 0 0 3 9 18 27 34 33 26 18 9 3 1 0 0 0 0 0 0 0 0 0 0 0 0 0 0 0 0 0 0 0 0 0 0 0
0 0 0 0 0 0 0 0 0 0 0 0 0 0 0 1 4 7 9 12 11 8 5 2 0 0 0 0 0 0 0 0 0 0 0 0 0 0 0 0 0 0 0 0 0 0 0 0 0
0 0 0 0 0 0 0 0 0 0 0 0 0 0 0 0 1 2 2 3 3 2 1 0 0 0 0 0 0 0 0 0 0 0 0 0 0 0 0 0 0 0 0 0 0 0 0 0 0
0 0 0 0 0 0 0 0 0 0 0 0 0 0 0 0 0 0 1 1 1 1 0 0 0 0 0 0 0 0 0 0 0 0 0 0 0 0 0 0 0 0 0 0 0 0 0 0 0
Wind_Speed
7 4 3 3 6 5 2 2 3 2 3 5 8 10 8 5 3 4 4 12 14 13 10 12 14 13 12 11 11 11 11 12 12 13 13 13 12 12 12 12 11 11 11 11 11 11 11 10 9
4 2 3 4 6 4 0 2 4 2 6 9 8 7 7 5 5 7 6 13 15 14 10 10 14 13 12 11 11 12 12 12 12 13 14 13 12 11 12 11 11 11 11 11 11 11 11 10 9
4 1 2 4 2 4 3 4 5 2 5 7 5 4 6 6 6 5 10 16 14 12 10 10 14 13 12 12 11 12 12 12 13 13 13 12 12 11 11 11 10 10 11 11 10 10 10 9 8
1 3 5 4 1 3 6 5 4 5 5 6 7 6 4 5 5 9 17 16 14 12 10 11 14 13 12 12 12 12 12 12 12 13 13 12 12 11 11 10 10 10 10 9 9 8 8 8 7
3 5 5 3 4 2 2 3 4 6 5 4 7 6 4 2 11 17 17 15 14 11 10 10 14 13 12 12 12 12 12 12 12 12 13 13 12 11 10 10 9 9 9 9 8 7 6 6 5
4 5 4 2 5 4 1 1 4 6 7 7 7 6 3 5 11 14 15 13 13 12 10 9 13 13 12 12 12 12 12 12 12 12 12 12 12 11 10 9 9 8 8 8 8 6 4 3 2
4 4 1 3 5 4 1 3 5 7 8 6 8 7 4 5 9 13 13 12 11 11 10 7 7 8 11 12 12 12 12 12 12 12 12 12 11 10 10 9 9 9 9 9 8 7 5 2 0
5 5 1 3 4 5 2 1 4 7 6 8 7 9 8 9 10 12 12 11 10 9 9 8 6 6 6 7 11 12 12 12 12 12 12 12 11 10 9 8 8 9 9 8 7 6 4 3 1
5 5 2 2 4 6 4 2 0 4 6 4 4 6 12 16 14 13 10 7 9 9 7 8 7 7 6 6 9 10 12 12 12 11 13 10 5 5 5 7 8 9 8 7 6 4 3 1 2
5 3 4 4 4 6 7 2 1 4 5 4 6 8 15 16 16 16 14 12 11 11 10 9 8 8 7 7 5 4 5 6 5 5 6 4 4 3 5 7 9 8 7 6 5 3 2 2 2
4 5 5 6 8 6 5 4 1 5 3 7 14 16 16 15 15 16 15 14 14 13 12 11 10 9 8 5 5 3 3 4 4 6 6 4 3 3 3 2 3 3 4 1 1 2 2 2 1
2 4 5 7 8 5 4 3 2 3 6 13 19 21 20 17 16 16 16 15 12 13 13 13 13 11 9 7 6 5 4 4 3 5 6 4 3 3 3 2 2 2 1 2 1 1 3 3 2
2 4 3 3 4 5 4 5 3 4 3 12 16 18 19 19 16 15 15 15 13 14 13 14 14 13 10 8 6 6 5 6 5 5 6 6 5 5 4 3 3 3 2 2 2 2 1 3 5
4 6 6 3 3 3 4 7 4 5 3 9 16 17 18 19 17 13 13 14 14 15 14 14 15 14 12 9 7 7 7 6 6 5 7 9 6 6 6 5 4 4 3 3 2 2 3 4 5
4 5 7 4 4 3 3 6 5 6 6 3 10 13 15 16 16 16 18 17 17 16 14 14 15 14 13 11 10 8 7 7 6 6 7 10 9 8 7 5 5 5 4 3 2 2 3 4 4
4 4 3 4 7 6 1 7 4 5 6 3 4 8 11 13 16 16 17 17 16 15 15 15 14 14 13 11 9 6 6 6 6 5 5 9 11 11 8 6 6 5 4 3 3 3 3 3 3
4 3 3 4 4 5 2 5 6 6 5 4 2 5 8 10 11 13 16 18 17 17 17 16 13 14 13 11 8 7 6 6 5 4 4 6 8 9 9 7 7 6 4 3 5 3 3 3 3
3 3 4 4 4 3 3 6 9 6 4 5 3 3 5 9 11 13 16 17 17 17 16 15 12 12 11 7 5 4 5 4 4 4 4 5 4 5 6 5 7 6 4 4 4 4 3 3 3
3 3 6 5 3 3 5 8 10 7 5 5 5 5 6 8 9 8 14 16 15 13 13 12 10 10 9 6 5 4 4 3 3 3 4 4 4 4 4 4 5 5 5 6 6 4 4 2 2
4 4 5 5 3 3 6 10 10 8 7 6 6 7 8 7 6 5 10 13 14 14 12 11 10 10 9 6 4 3 3 3 3 3 3 4 4 4 4 4 4 4 4 6 6 5 4 2 3
4 5 5 5 3 2 5 9 7 6 6 7 7 7 7 9 9 7 9 10 11 12 13 11 10 9 8 7 5 4 3 3 2 2 3 4 4 5 4 5 4 4 4 6 6 7 7 5 2
6 7 6 3 0 4 2 6 9 7 7 7 6 4 5 5 6 7 8 9 9 9 10 11 10 10 9 8 7 7 5 4 4 3 3 3 4 4 5 6 6 5 4 5 6 6 5 6 4
5 3 3 2 2 2 2 3 9 7 8 9 8 6 4 4 8 9 9 9 9 8 8 8 9 8 7 7 7 6 4 3 2 2 3 4 3 4 5 5 5 6 5 5 6 5 6 5 5
2 5 5 4 3 3 4 4 5 6 10 14 13 11 7 2 7 10 10 12 11 9 7 7 7 6 6 6 6 6 6 4 3 3 3 2 2 2 3 4 5 5 5 5 6 5 7 5 5
7 6 5 5 2 6 4 3 1 7 11 14 16 14 9 5 3 7 10 11 12 12 9 7 7 6 6 6 5 5 5 5 5 4 3 3 2 2 2 3 4 4 5 5 5 5 6 7 7
4 3 3 3 4 4 3 2 3 8 11 14 16 16 14 10 6 3 4 7 9 10 9 8 8 6 6 6 5 4 5 3 3 4 3 3 3 2 2 3 3 4 5 5 5 4 6 6 7
4 2 3 4 4 4 4 2 4 14 17 18 17 17 17 14 10 8 6 4 4 6 7 8 8 6 5 5 4 4 4 4 4 3 3 2 2 2 2 3 3 3 3 4 4 3 5 5 6
3 2 3 2 1 2 2 4 8 15 16 15 15 14 13 12 11 10 7 5 2 2 3 5 6 6 5 5 4 3 4 5 4 3 3 3 3 2 3 3 3 2 2 3 3 2 3 4 4
6 4 3 0 1 1 1 3 6 10 12 12 12 11 10 8 7 6 4 4 5 4 3 4 6 6 5 5 4 4 4 4 4 4 4 4 3 3 4 3 3 3 3 2 2 2 2 3 3
3 2 1 1 2 1 1 2 7 9 10 10 11 10 8 7 5 3 4 6 7 7 6 5 5 5 5 5 4 5 4 5 5 4 4 4 4 4 4 4 3 3 4 3 3 3 2 2 3
Wind_Direction
297 297 133 94 54 54 112 188 143 94 62 71 87 91 93 83 104 134 136 150 142 150 160 157 155 149 142 136 132 129 130 131 130 128 124 119 114 110 106 102 100 98 97 97 97 99 101 102 104
306 306 116 69 79 80 136 189 127 152 133 118 93 98 93 80 99 111 122 145 145 150 154 156 157 154 149 144 139 135 133 133 131 131 128 125 122 118 115 111 108 107 106 103 103 103 103 102 101
291 253 79 65 100 153 173 203 163 137 117 124 96 73 93 122 122 129 145 144 144 148 151 156 157 156 154 150 145 141 137 135 133 134 134 132 128 122 118 116 114 113 113 109 107 106 105 104 100
22 41 49 58 320 206 179 202 164 115 88 95 100 65 69 133 143 135 142 146 146 149 151 157 157 157 157 155 152 149 146 141 138 138 138 137 134 128 122 121 121 120 119 116 113 111 108 106 100
74 67 47 12 295 269 191 187 143 129 122 96 95 85 53 68 121 134 146 147 145 147 151 158 157 159 159 158 157 156 153 149 146 144 143 142 140 134 127 126 127 127 127 128 125 121 115 108 98
59 63 61 324 300 298 297 115 93 92 109 108 103 105 109 135 131 141 146 147 146 148 151 155 159 160 162 161 161 160 158 156 153 150 147 145 143 139 132 131 134 135 136 138 140 137 131 115 85
93 81 59 300 299 295 219 110 96 111 134 148 131 105 124 159 149 143 144 144 145 147 149 148 155 161 165 165 164 162 160 160 158 153 150 149 147 144 140 140 143 141 141 146 151 157 165 178 318
116 100 105 302 289 279 292 87 129 128 143 140 130 133 159 177 151 140 141 142 145 149 154 154 153 156 158 164 166 163 162 162 160 157 154 153 153 151 151 150 154 152 153 156 163 172 185 209 269
84 84 157 240 269 283 310 0 336 121 126 140 139 148 158 154 144 139 141 140 151 159 163 163 162 161 158 160 168 163 163 165 162 160 160 154 143 145 152 163 170 167 164 166 173 185 204 235 338
96 133 201 212 246 269 299 290 222 85 93 79 81 105 140 149 151 153 159 164 168 173 176 172 170 167 164 169 154 152 158 159 157 156 154 143 145 161 169 184 183 183 178 179 188 219 276 333 15
152 180 198 209 237 257 284 289 243 124 151 165 152 151 156 161 163 165 170 175 179 178 179 176 173 171 171 163 153 153 148 155 162 163 154 147 155 173 170 185 197 200 196 193 243 280 295 292 346
256 234 200 213 218 228 248 290 299 197 196 177 165 162 166 172 176 176 177 181 180 178 182 179 175 173 175 164 165 164 162 171 177 178 166 156 161 169 175 189 209 217 220 224 248 252 249 243 218
288 278 270 232 221 235 256 257 251 260 221 163 165 168 175 181 184 184 182 181 179 181 182 178 175 174 173 166 172 173 179 186 189 182 179 171 169 176 184 194 210 223 227 233 249 249 199 141 134
272 295 299 302 304 293 267 271 260 269 282 163 173 183 187 188 187 183 183 182 182 183 181 177 175 174 172 173 177 180 184 189 193 190 185 182 178 182 185 193 208 225 224 216 202 198 135 114 123
307 318 318 342 341 308 287 280 264 293 324 195 187 197 200 199 191 187 186 184 184 183 179 179 177 173 175 177 182 182 186 188 195 198 189 186 185 189 188 192 201 222 223 191 159 155 118 109 114
336 348 322 342 2 333 286 253 276 348 348 306 226 216 216 214 204 194 188 183 181 179 179 182 181 177 178 179 183 183 185 187 194 195 188 185 187 190 189 192 199 206 199 165 153 150 119 110 116
356 319 296 309 2 347 17 263 294 330 352 336 294 251 241 231 221 203 188 182 179 179 181 182 180 177 179 179 180 180 181 187 190 187 185 184 187 189 186 192 197 189 175 167 165 153 136 134 136
272 289 292 289 317 339 309 279 291 305 306 300 298 274 260 249 233 206 189 182 178 179 180 181 177 174 171 165 157 159 172 182 186 188 191 180 180 190 187 191 195 181 166 167 163 151 137 145 154
210 239 267 262 262 296 274 278 283 286 281 286 295 295 277 257 258 211 185 180 174 174 173 175 169 166 158 153 158 162 175 177 185 193 194 185 171 183 186 194 195 187 177 174 162 141 139 136 123
215 254 269 275 261 279 281 279 274 265 252 248 258 271 273 260 255 210 181 174 172 170 168 166 162 157 157 154 153 152 145 155 171 180 191 196 177 173 178 184 193 199 185 172 165 146 140 149 141
243 229 236 251 316 332 313 302 296 287 271 267 256 249 257 243 220 196 173 169 164 164 163 157 150 142 137 133 122 107 90 86 113 182 207 212 190 180 177 182 186 202 199 188 179 164 151 160 169
254 239 215 211 14 302 4 303 296 300 314 306 292 280 257 236 185 162 147 143 150 152 143 137 135 131 133 136 141 147 155 169 188 188 207 228 215 195 186 185 183 188 197 199 195 175 162 152 163
239 258 196 174 160 302 276 240 290 332 336 330 325 318 289 184 149 140 136 131 122 119 122 125 124 126 133 135 142 144 149 167 170 177 210 230 232 213 195 191 186 189 193 202 203 183 175 164 161
34 38 35 52 80 285 243 203 292 353 345 345 349 350 347 172 154 145 140 133 126 119 119 126 133 138 141 141 147 153 160 166 171 190 211 229 235 227 204 192 195 196 195 200 203 188 183 185 171
29 54 10 348 352 252 254 203 319 359 9 7 1 359 6 32 97 141 143 141 138 139 148 153 156 157 158 156 162 169 174 177 190 200 211 214 219 225 214 187 191 194 198 198 192 189 191 194 192
319 131 165 244 253 287 308 240 67 7 13 14 12 9 10 18 31 70 126 140 139 144 152 160 165 166 165 167 177 182 184 180 194 207 204 207 208 214 199 180 185 189 190 192 190 196 201 201 205
342 356 163 188 248 262 276 326 28 7 11 9 7 10 10 8 16 32 38 61 109 146 165 171 170 165 173 180 183 195 196 189 194 200 194 190 189 182 163 156 161 166 171 182 185 205 212 205 212
26 33 51 116 199 255 322 34 360 352 352 351 355 358 358 4 10 19 25 30 326 214 181 173 173 177 182 184 190 194 192 185 181 171 170 170 170 155 145 144 148 150 148 152 165 189 206 208 218
4 29 25 256 159 141 22 40 356 336 330 328 335 339 342 355 12 17 352 307 273 259 224 201 190 185 184 181 177 167 165 162 159 168 176 173 172 172 171 171 169 173 175 173 172 190 193 209 223
56 56 59 86 16 28 107 63 341 326 318 317 321 324 330 338 334 313 272 262 265 256 241 221 200 190 189 178 164 163 157 157 163 178 187 183 181 187 189 186 185 192 195 193 193 207 213 225 233